Time,TemperatureF,DewpointF,PressureIn,WindDirection,WindDirectionDegrees,WindSpeedMPH,WindSpeedGustMPH,Humidity,HourlyPrecipIn,Conditions,Clouds,dailyrainin,SoftwareType,DateUTC
2013-12-27 00:04:00,46.4,45.0,30.42,SW,224,0.0,0.0,95,0.00,,,0.00,Wunderground v.1.15,2013-12-27 06:04:00,
2013-12-27 00:15:00,46.4,45.3,30.42,SW,224,0.0,0.0,96,0.00,,,0.00,Wunderground v.1.15,2013-12-27 06:15:00,
2013-12-27 00:24:00,46.5,45.1,30.42,SW,224,0.0,0.0,95,0.00,,,0.00,Wunderground v.1.15,2013-12-27 06:24:00,
2013-12-27 00:30:00,46.4,45.0,30.42,SW,224,0.0,0.0,95,0.00,,,0.00,Wunderground v.1.15,2013-12-27 06:30:00,
2013-12-27 00:39:00,46.4,45.0,30.41,SW,224,0.0,0.0,95,0.00,,,0.00,Wunderground v.1.15,2013-12-27 06:39:00,
2013-12-27 00:50:00,46.4,45.0,30.41,SW,224,0.0,0.0,95,0.00,,,0.00,Wunderground v.1.15,2013-12-27 06:50:00,
2013-12-27 01:00:00,46.4,45.0,30.41,SW,224,0.0,0.0,95,0.00,,,0.00,Wunderground v.1.15,2013-12-27 07:00:00,
2013-12-27 01:09:00,46.2,44.8,30.41,SW,224,0.0,0.0,95,0.00,,,0.00,Wunderground v.1.15,2013-12-27 07:09:00,
2013-12-27 01:20:00,46.2,44.6,30.40,SW,226,0.0,0.0,94,0.00,,,0.00,Wunderground v.1.15,2013-12-27 07:20:00,
2013-12-27 01:29:00,46.2,44.6,30.40,SW,226,0.0,0.0,94,0.00,,,0.00,Wunderground v.1.15,2013-12-27 07:29:00,
2013-12-27 01:35:00,46.1,44.5,30.41,SW,227,0.0,0.0,94,0.00,,,0.00,Wunderground v.1.15,2013-12-27 07:35:00,
2013-12-27 01:44:00,46.1,44.5,30.41,SW,226,0.0,0.0,94,0.00,,,0.00,Wunderground v.1.15,2013-12-27 07:44:00,
2013-12-27 01:50:00,46.0,44.4,30.41,SW,226,0.0,0.0,94,0.00,,,0.00,Wunderground v.1.15,2013-12-27 07:50:00,
2013-12-27 01:59:00,46.0,44.4,30.41,SW,226,0.0,0.0,94,0.00,,,0.00,Wunderground v.1.15,2013-12-27 07:59:00,
2013-12-27 02:05:00,45.9,44.3,30.41,SW,226,0.0,0.0,94,0.00,,,0.01,Wunderground v.1.15,2013-12-27 08:05:00,
2013-12-27 02:14:00,45.8,44.2,30.41,SW,226,0.0,0.0,94,0.00,,,0.01,Wunderground v.1.15,2013-12-27 08:14:00,
2013-12-27 02:20:00,45.8,44.2,30.41,SW,226,0.0,0.0,94,0.04,,,0.02,Wunderground v.1.15,2013-12-27 08:20:00,
2013-12-27 02:29:00,45.9,44.3,30.41,SW,225,0.0,0.0,94,0.04,,,0.02,Wunderground v.1.15,2013-12-27 08:29:00,
2013-12-27 02:35:00,45.8,44.4,30.41,SW,225,0.0,0.0,95,0.04,,,0.02,Wunderground v.1.15,2013-12-27 08:35:00,
2013-12-27 02:45:00,45.7,44.4,30.41,SW,225,0.0,0.0,95,0.00,,,0.03,Wunderground v.1.15,2013-12-27 08:45:00,
2013-12-27 02:55:00,45.7,44.4,30.41,SW,225,0.0,0.0,95,0.00,,,0.03,Wunderground v.1.15,2013-12-27 08:55:00,
2013-12-27 03:05:00,45.8,44.4,30.41,SW,225,0.0,0.0,95,0.00,,,0.04,Wunderground v.1.15,2013-12-27 09:05:00,
2013-12-27 03:14:00,45.7,44.4,30.41,SW,225,0.0,0.0,95,0.04,,,0.05,Wunderground v.1.15,2013-12-27 09:14:00,
2013-12-27 03:20:00,45.7,44.4,30.41,SW,225,0.0,0.0,95,0.04,,,0.05,Wunderground v.1.15,2013-12-27 09:20:00,
2013-12-27 03:29:00,45.6,44.3,30.42,SW,225,0.0,0.0,95,0.04,,,0.06,Wunderground v.1.15,2013-12-27 09:29:00,
2013-12-27 03:35:00,45.5,44.2,30.42,SW,225,0.0,0.0,95,0.04,,,0.06,Wunderground v.1.15,2013-12-27 09:35:00,
2013-12-27 03:45:00,45.4,44.3,30.42,WSW,243,0.0,0.0,96,0.04,,,0.06,Wunderground v.1.15,2013-12-27 09:45:00,
2013-12-27 03:54:00,45.3,44.2,30.42,NNE,26,0.0,0.0,96,0.00,,,0.07,Wunderground v.1.15,2013-12-27 09:54:00,
2013-12-27 04:00:00,45.3,44.2,30.42,NNE,26,0.0,0.0,96,0.00,,,0.07,Wunderground v.1.15,2013-12-27 10:00:00,
2013-12-27 04:10:00,45.3,44.2,30.42,NNE,26,0.0,0.0,96,0.00,,,0.07,Wunderground v.1.15,2013-12-27 10:10:00,
2013-12-27 04:19:00,45.2,44.1,30.42,North,8,0.0,0.0,96,0.00,,,0.08,Wunderground v.1.15,2013-12-27 10:19:00,
2013-12-27 04:25:00,45.2,44.1,30.42,North,8,0.0,0.0,96,0.00,,,0.08,Wunderground v.1.15,2013-12-27 10:25:00,
2013-12-27 04:34:00,45.2,44.1,30.42,North,9,0.0,0.0,96,0.00,,,0.08,Wunderground v.1.15,2013-12-27 10:34:00,
2013-12-27 04:40:00,45.2,44.1,30.42,North,9,0.0,0.0,96,0.00,,,0.09,Wunderground v.1.15,2013-12-27 10:40:00,
2013-12-27 04:49:00,45.2,44.1,30.42,North,5,0.0,0.0,96,0.00,,,0.09,Wunderground v.1.15,2013-12-27 10:49:00,
2013-12-27 04:55:00,45.2,44.1,30.41,North,5,0.0,0.0,96,0.04,,,0.10,Wunderground v.1.15,2013-12-27 10:55:00,
2013-12-27 05:05:00,45.2,44.1,30.41,North,7,0.0,0.0,96,0.04,,,0.10,Wunderground v.1.15,2013-12-27 11:05:00,
2013-12-27 05:14:00,45.2,44.1,30.41,NNE,16,0.0,0.0,96,0.00,,,0.10,Wunderground v.1.15,2013-12-27 11:14:00,
2013-12-27 05:20:00,45.2,44.1,30.41,NNE,31,0.0,0.0,96,0.00,,,0.10,Wunderground v.1.15,2013-12-27 11:20:00,
2013-12-27 05:29:00,45.3,44.2,30.41,NW,326,0.0,0.0,96,0.00,,,0.11,Wunderground v.1.15,2013-12-27 11:29:00,
2013-12-27 05:35:00,45.3,44.2,30.41,NW,326,0.0,0.0,96,0.00,,,0.11,Wunderground v.1.15,2013-12-27 11:35:00,
2013-12-27 05:45:00,45.3,44.2,30.41,NNE,13,0.0,0.0,96,0.00,,,0.12,Wunderground v.1.15,2013-12-27 11:45:00,
2013-12-27 05:54:00,45.3,44.2,30.41,NNE,13,0.0,0.0,96,0.00,,,0.12,Wunderground v.1.15,2013-12-27 11:54:00,
2013-12-27 06:05:00,45.4,44.3,30.41,NNE,13,0.0,0.0,96,0.04,,,0.13,Wunderground v.1.15,2013-12-27 12:05:00,
2013-12-27 06:15:00,45.3,44.5,30.41,NNE,13,0.0,0.0,97,0.00,,,0.13,Wunderground v.1.15,2013-12-27 12:15:00,
2013-12-27 06:24:00,45.3,44.5,30.42,NNE,13,0.0,0.0,97,0.00,,,0.14,Wunderground v.1.15,2013-12-27 12:24:00,
2013-12-27 06:34:00,45.3,44.5,30.42,NNE,13,0.0,0.0,97,0.00,,,0.14,Wunderground v.1.15,2013-12-27 12:34:00,
2013-12-27 06:45:00,45.3,44.5,30.42,NNE,13,0.0,0.0,97,0.00,,,0.15,Wunderground v.1.15,2013-12-27 12:45:00,
2013-12-27 06:54:00,45.3,44.5,30.43,NNE,13,0.0,0.0,97,0.00,,,0.15,Wunderground v.1.15,2013-12-27 12:54:00,
2013-12-27 07:00:00,45.2,44.4,30.43,NNE,13,0.0,0.0,97,0.00,,,0.15,Wunderground v.1.15,2013-12-27 13:00:00,
2013-12-27 07:09:00,45.3,44.5,30.43,NNE,13,0.0,0.0,97,0.00,,,0.15,Wunderground v.1.15,2013-12-27 13:09:00,
2013-12-27 07:15:00,45.3,44.5,30.43,NNE,13,0.0,0.0,97,0.00,,,0.15,Wunderground v.1.15,2013-12-27 13:15:00,
2013-12-27 07:25:00,45.3,44.5,30.43,NNE,13,0.0,0.0,97,0.00,,,0.16,Wunderground v.1.15,2013-12-27 13:25:00,
2013-12-27 07:34:00,45.3,44.5,30.44,NNE,13,0.0,0.0,97,0.00,,,0.16,Wunderground v.1.15,2013-12-27 13:34:00,
2013-12-27 07:40:00,45.3,44.5,30.44,NNE,14,0.0,0.0,97,0.00,,,0.16,Wunderground v.1.15,2013-12-27 13:40:00,
2013-12-27 07:49:00,45.4,44.6,30.44,NNE,14,0.0,0.0,97,0.00,,,0.17,Wunderground v.1.15,2013-12-27 13:49:00,
2013-12-27 07:55:00,45.4,44.6,30.44,NNE,15,0.0,0.0,97,0.00,,,0.17,Wunderground v.1.15,2013-12-27 13:55:00,
2013-12-27 08:04:00,45.5,44.7,30.45,North,7,0.0,0.0,97,0.00,,,0.17,Wunderground v.1.15,2013-12-27 14:04:00,
2013-12-27 08:10:00,45.4,44.6,30.45,NE,47,0.0,0.0,97,0.00,,,0.18,Wunderground v.1.15,2013-12-27 14:10:00,
2013-12-27 08:20:00,45.2,44.4,30.45,NE,55,0.0,0.0,97,0.00,,,0.18,Wunderground v.1.15,2013-12-27 14:20:00,
2013-12-27 08:29:00,45.2,44.4,30.45,NE,56,0.0,0.0,97,0.00,,,0.18,Wunderground v.1.15,2013-12-27 14:29:00,
2013-12-27 08:35:00,45.1,44.3,30.45,ENE,73,0.0,0.0,97,0.00,,,0.18,Wunderground v.1.15,2013-12-27 14:35:00,
2013-12-27 08:44:00,44.9,44.1,30.46,NE,37,0.0,0.0,97,0.00,,,0.19,Wunderground v.1.15,2013-12-27 14:44:00,
2013-12-27 08:50:00,44.8,44.0,30.46,East,82,0.0,0.0,97,0.00,,,0.19,Wunderground v.1.15,2013-12-27 14:50:00,
2013-12-27 09:00:00,44.9,44.1,30.46,North,360,0.0,0.0,97,0.00,,,0.19,Wunderground v.1.15,2013-12-27 15:00:00,
2013-12-27 09:09:00,44.9,44.1,30.47,NNW,340,0.0,0.0,97,0.00,,,0.20,Wunderground v.1.15,2013-12-27 15:09:00,
2013-12-27 09:15:00,45.0,44.2,30.47,NNW,332,0.0,0.0,97,0.00,,,0.20,Wunderground v.1.15,2013-12-27 15:15:00,
2013-12-27 09:24:00,45.0,44.2,30.47,NE,55,0.0,0.0,97,0.04,,,0.21,Wunderground v.1.15,2013-12-27 15:24:00,
2013-12-27 09:30:00,45.1,44.3,30.47,NNE,28,0.0,0.0,97,0.04,,,0.21,Wunderground v.1.15,2013-12-27 15:30:00,
2013-12-27 09:39:00,45.3,44.5,30.48,East,101,0.0,0.0,97,0.04,,,0.22,Wunderground v.1.15,2013-12-27 15:39:00,
2013-12-27 09:45:00,45.4,44.6,30.48,NNE,18,0.0,1.0,97,0.04,,,0.22,Wunderground v.1.15,2013-12-27 15:45:00,
2013-12-27 09:54:00,45.5,44.7,30.48,ENE,74,0.0,0.0,97,0.00,,,0.23,Wunderground v.1.15,2013-12-27 15:54:00,
2013-12-27 10:00:00,45.6,44.8,30.48,North,5,0.0,0.0,97,0.00,,,0.23,Wunderground v.1.15,2013-12-27 16:00:00,
2013-12-27 10:09:00,45.7,44.6,30.48,ENE,65,0.0,0.0,96,0.00,,,0.23,Wunderground v.1.15,2013-12-27 16:09:00,
2013-12-27 10:15:00,45.7,44.6,30.48,ENE,77,0.0,0.0,96,0.00,,,0.23,Wunderground v.1.15,2013-12-27 16:15:00,
2013-12-27 10:24:00,46.1,45.3,30.48,NE,41,0.0,1.0,97,0.00,,,0.23,Wunderground v.1.15,2013-12-27 16:24:00,
2013-12-27 10:29:00,46.1,45.0,30.48,ENE,68,0.0,0.0,96,0.00,,,0.24,Wunderground v.1.15,2013-12-27 16:29:00,
2013-12-27 10:40:00,46.3,45.2,30.48,NNW,343,0.0,0.0,96,0.00,,,0.24,Wunderground v.1.15,2013-12-27 16:40:00,
2013-12-27 10:49:00,46.6,45.5,30.48,NE,44,0.0,1.0,96,0.00,,,0.24,Wunderground v.1.15,2013-12-27 16:49:00,
2013-12-27 10:55:00,47.1,46.0,30.47,NW,326,0.0,1.0,96,0.00,,,0.24,Wunderground v.1.15,2013-12-27 16:55:00,
2013-12-27 11:04:00,47.5,46.4,30.47,NNE,29,0.0,1.0,96,0.00,,,0.24,Wunderground v.1.15,2013-12-27 17:04:00,
2013-12-27 11:10:00,47.4,46.0,30.47,North,352,0.0,2.0,95,0.00,,,0.24,Wunderground v.1.15,2013-12-27 17:10:00,
2013-12-27 11:20:00,47.5,45.9,30.47,ENE,63,0.0,3.0,94,0.00,,,0.24,Wunderground v.1.15,2013-12-27 17:20:00,
2013-12-27 11:29:00,47.8,46.2,30.46,NE,38,0.0,1.0,94,0.00,,,0.24,Wunderground v.1.15,2013-12-27 17:29:00,
2013-12-27 11:40:00,48.1,46.5,30.46,NNE,27,0.0,0.0,94,0.00,,,0.24,Wunderground v.1.15,2013-12-27 17:40:00,
2013-12-27 11:49:00,48.4,46.5,30.46,NNE,19,0.0,0.0,93,0.00,,,0.24,Wunderground v.1.15,2013-12-27 17:49:00,
2013-12-27 11:55:00,48.6,46.7,30.46,North,1,0.0,0.0,93,0.00,,,0.24,Wunderground v.1.15,2013-12-27 17:55:00,
2013-12-27 12:04:00,48.9,46.7,30.45,East,79,0.0,0.0,92,0.00,,,0.24,Wunderground v.1.15,2013-12-27 18:04:00,
2013-12-27 12:10:00,49.0,46.8,30.45,NNW,332,0.0,0.0,92,0.00,,,0.24,Wunderground v.1.15,2013-12-27 18:10:00,
2013-12-27 12:20:00,49.3,46.8,30.45,NNE,29,0.0,0.0,91,0.00,,,0.24,Wunderground v.1.15,2013-12-27 18:20:00,
2013-12-27 12:29:00,49.5,47.0,30.44,NNE,18,0.0,1.0,91,0.00,,,0.24,Wunderground v.1.15,2013-12-27 18:29:00,
2013-12-27 12:35:00,49.6,47.1,30.44,NW,321,0.0,3.0,91,0.00,,,0.24,Wunderground v.1.15,2013-12-27 18:35:00,
2013-12-27 12:44:00,49.5,46.7,30.44,NE,55,1.0,1.0,90,0.00,,,0.24,Wunderground v.1.15,2013-12-27 18:44:00,
2013-12-27 12:50:00,49.7,46.9,30.43,East,89,0.0,0.0,90,0.00,,,0.24,Wunderground v.1.15,2013-12-27 18:50:00,
2013-12-27 12:59:00,49.9,46.8,30.43,ENE,77,1.0,1.0,89,0.00,,,0.24,Wunderground v.1.15,2013-12-27 18:59:00,
2013-12-27 13:05:00,49.9,46.8,30.43,East,83,0.0,1.0,89,0.00,,,0.24,Wunderground v.1.15,2013-12-27 19:05:00,
2013-12-27 13:15:00,50.1,47.0,30.43,East,82,0.0,1.0,89,0.00,,,0.24,Wunderground v.1.15,2013-12-27 19:15:00,
2013-12-27 13:24:00,50.1,47.0,30.43,WNW,293,0.0,0.0,89,0.00,,,0.24,Wunderground v.1.15,2013-12-27 19:24:00,
2013-12-27 13:30:00,50.2,47.1,30.42,NNW,338,0.0,0.0,89,0.00,,,0.24,Wunderground v.1.15,2013-12-27 19:30:00,
2013-12-27 13:39:00,50.2,47.4,30.42,NNE,27,0.0,0.0,90,0.00,,,0.24,Wunderground v.1.15,2013-12-27 19:39:00,
2013-12-27 13:45:00,50.1,47.3,30.41,East,100,0.0,1.0,90,0.00,,,0.25,Wunderground v.1.15,2013-12-27 19:45:00,
2013-12-27 13:54:00,50.3,47.8,30.41,East,101,0.0,0.0,91,0.00,,,0.25,Wunderground v.1.15,2013-12-27 19:54:00,
2013-12-27 14:00:00,50.5,48.0,30.41,East,100,0.0,0.0,91,0.00,,,0.25,Wunderground v.1.15,2013-12-27 20:00:00,
2013-12-27 14:09:00,50.9,48.1,30.40,ENE,59,0.0,0.0,90,0.00,,,0.25,Wunderground v.1.15,2013-12-27 20:09:00,
2013-12-27 14:15:00,50.9,47.8,30.40,NW,325,0.0,1.0,89,0.00,,,0.26,Wunderground v.1.15,2013-12-27 20:15:00,
2013-12-27 14:24:00,50.9,47.8,30.39,NNW,334,0.0,1.0,89,0.00,,,0.26,Wunderground v.1.15,2013-12-27 20:24:00,
2013-12-27 14:30:00,50.9,47.5,30.39,NNE,20,0.0,1.0,88,0.00,,,0.26,Wunderground v.1.15,2013-12-27 20:30:00,
2013-12-27 14:40:00,50.9,47.2,30.39,ENE,77,1.0,1.0,87,0.00,,,0.26,Wunderground v.1.15,2013-12-27 20:40:00,
2013-12-27 14:49:00,51.2,48.1,30.39,NE,56,0.0,1.0,89,0.00,,,0.26,Wunderground v.1.15,2013-12-27 20:49:00,
2013-12-27 14:55:00,51.4,48.0,30.39,ENE,58,0.0,1.0,88,0.00,,,0.26,Wunderground v.1.15,2013-12-27 20:55:00,
2013-12-27 15:04:00,51.7,47.6,30.38,NW,316,1.0,1.0,86,0.00,,,0.26,Wunderground v.1.15,2013-12-27 21:04:00,
2013-12-27 15:10:00,52.1,48.0,30.38,North,8,1.0,1.0,86,0.00,,,0.26,Wunderground v.1.15,2013-12-27 21:10:00,
2013-12-27 15:19:00,52.7,48.0,30.38,East,82,0.0,2.0,84,0.00,,,0.26,Wunderground v.1.15,2013-12-27 21:19:00,
2013-12-27 15:25:00,52.6,47.3,30.38,NNW,332,1.0,2.0,82,0.00,,,0.26,Wunderground v.1.15,2013-12-27 21:25:00,
2013-12-27 15:34:00,52.9,46.9,30.38,North,11,1.0,4.0,80,0.00,,,0.26,Wunderground v.1.15,2013-12-27 21:34:00,
2013-12-27 15:40:00,52.9,46.6,30.38,North,5,2.0,2.0,79,0.00,,,0.26,Wunderground v.1.15,2013-12-27 21:40:00,
2013-12-27 15:49:00,52.8,46.8,30.38,NNE,25,0.0,1.0,80,0.00,,,0.26,Wunderground v.1.15,2013-12-27 21:49:00,
2013-12-27 15:55:00,53.1,46.4,30.38,NW,314,1.0,1.0,78,0.00,,,0.26,Wunderground v.1.15,2013-12-27 21:55:00,
2013-12-27 16:04:00,53.4,46.4,30.38,NNW,347,1.0,2.0,77,0.00,,,0.26,Wunderground v.1.15,2013-12-27 22:04:00,
2013-12-27 16:10:00,53.9,46.9,30.38,ENE,75,1.0,1.0,77,0.00,,,0.26,Wunderground v.1.15,2013-12-27 22:10:00,
2013-12-27 16:20:00,54.3,46.2,30.38,North,9,1.0,1.0,74,0.00,,,0.26,Wunderground v.1.15,2013-12-27 22:20:00,
2013-12-27 16:29:00,54.3,45.5,30.38,NNW,340,1.0,1.0,72,0.00,,,0.26,Wunderground v.1.15,2013-12-27 22:29:00,
2013-12-27 16:35:00,54.1,45.6,30.37,North,349,1.0,1.0,73,0.00,,,0.26,Wunderground v.1.15,2013-12-27 22:35:00,
2013-12-27 16:44:00,54.1,45.3,30.38,NE,48,0.0,2.0,72,0.00,,,0.26,Wunderground v.1.15,2013-12-27 22:44:00,
2013-12-27 16:50:00,53.9,44.7,30.37,NE,46,0.0,2.0,71,0.00,,,0.26,Wunderground v.1.15,2013-12-27 22:50:00,
2013-12-27 16:59:00,53.5,44.7,30.37,NE,34,0.0,0.0,72,0.00,,,0.26,Wunderground v.1.15,2013-12-27 22:59:00,
2013-12-27 17:04:00,53.2,44.8,30.38,NE,34,0.0,0.0,73,0.00,,,0.26,Wunderground v.1.15,2013-12-27 23:04:00,
2013-12-27 17:15:00,52.6,45.9,30.38,NE,34,0.0,0.0,78,0.00,,,0.26,Wunderground v.1.15,2013-12-27 23:15:00,
2013-12-27 17:24:00,51.4,46.1,30.38,NE,34,0.0,0.0,82,0.00,,,0.26,Wunderground v.1.15,2013-12-27 23:24:00,
2013-12-27 17:34:00,50.5,46.2,30.38,NE,34,0.0,0.0,85,0.00,,,0.26,Wunderground v.1.15,2013-12-27 23:34:00,
2013-12-27 17:45:00,50.1,46.1,30.38,NE,34,0.0,0.0,86,0.00,,,0.26,Wunderground v.1.15,2013-12-27 23:45:00,
2013-12-27 17:54:00,49.7,46.0,30.38,NE,34,0.0,0.0,87,0.00,,,0.26,Wunderground v.1.15,2013-12-27 23:54:00,
2013-12-27 18:05:00,49.5,46.1,30.38,NE,34,0.0,0.0,88,0.00,,,0.26,Wunderground v.1.15,2013-12-28 00:05:00,
2013-12-27 18:14:00,49.3,46.2,30.38,NE,34,0.0,0.0,89,0.00,,,0.26,Wunderground v.1.15,2013-12-28 00:14:00,
2013-12-27 18:20:00,49.2,46.1,30.39,NE,34,0.0,0.0,89,0.00,,,0.26,Wunderground v.1.15,2013-12-28 00:20:00,
2013-12-27 18:29:00,49.2,46.1,30.39,NE,34,0.0,0.0,89,0.00,,,0.26,Wunderground v.1.15,2013-12-28 00:29:00,
2013-12-27 18:35:00,49.1,46.3,30.39,NE,34,0.0,0.0,90,0.00,,,0.26,Wunderground v.1.15,2013-12-28 00:35:00,
2013-12-27 18:45:00,49.0,46.2,30.39,NE,34,0.0,0.0,90,0.00,,,0.26,Wunderground v.1.15,2013-12-28 00:45:00,
2013-12-27 18:55:00,48.9,46.4,30.39,NE,34,0.0,0.0,91,0.00,,,0.26,Wunderground v.1.15,2013-12-28 00:55:00,
2013-12-27 19:04:00,48.8,46.3,30.40,NE,34,0.0,0.0,91,0.00,,,0.26,Wunderground v.1.15,2013-12-28 01:04:00,
2013-12-27 19:10:00,48.7,46.2,30.40,NE,34,0.0,0.0,91,0.00,,,0.26,Wunderground v.1.15,2013-12-28 01:10:00,
2013-12-27 19:20:00,48.5,46.3,30.40,NE,34,0.0,0.0,92,0.00,,,0.26,Wunderground v.1.15,2013-12-28 01:20:00,
2013-12-27 19:29:00,48.4,46.2,30.40,NE,34,0.0,0.0,92,0.00,,,0.26,Wunderground v.1.15,2013-12-28 01:29:00,
2013-12-27 19:35:00,48.3,46.1,30.40,NE,34,0.0,0.0,92,0.00,,,0.26,Wunderground v.1.15,2013-12-28 01:35:00,
2013-12-27 19:44:00,48.1,45.9,30.40,NE,34,0.0,0.0,92,0.00,,,0.26,Wunderground v.1.15,2013-12-28 01:44:00,
2013-12-27 19:50:00,48.0,45.8,30.40,NE,34,0.0,0.0,92,0.00,,,0.26,Wunderground v.1.15,2013-12-28 01:50:00,
2013-12-27 19:59:00,47.8,45.6,30.41,NE,34,0.0,0.0,92,0.00,,,0.26,Wunderground v.1.15,2013-12-28 01:59:00,
2013-12-27 20:05:00,47.7,45.5,30.41,NE,34,0.0,0.0,92,0.00,,,0.26,Wunderground v.1.15,2013-12-28 02:05:00,
2013-12-27 20:14:00,47.4,45.2,30.40,NE,34,0.0,0.0,92,0.00,,,0.26,Wunderground v.1.15,2013-12-28 02:14:00,
2013-12-27 20:20:00,47.3,45.1,30.40,NE,34,0.0,0.0,92,0.00,,,0.26,Wunderground v.1.15,2013-12-28 02:20:00,
2013-12-27 20:29:00,46.9,44.7,30.40,NE,34,0.0,0.0,92,0.00,,,0.26,Wunderground v.1.15,2013-12-28 02:29:00,
2013-12-27 20:35:00,46.8,44.9,30.40,NE,34,0.0,0.0,93,0.00,,,0.26,Wunderground v.1.15,2013-12-28 02:35:00,
2013-12-27 20:44:00,46.6,44.7,30.40,NE,34,0.0,0.0,93,0.00,,,0.26,Wunderground v.1.15,2013-12-28 02:44:00,
2013-12-27 20:50:00,46.5,44.6,30.40,NE,34,0.0,0.0,93,0.00,,,0.26,Wunderground v.1.15,2013-12-28 02:50:00,
2013-12-27 20:59:00,46.3,44.4,30.40,NE,34,0.0,0.0,93,0.00,,,0.26,Wunderground v.1.15,2013-12-28 02:59:00,
2013-12-27 21:04:00,46.3,44.4,30.40,NE,34,0.0,0.0,93,0.00,,,0.26,Wunderground v.1.15,2013-12-28 03:04:00,
2013-12-27 21:15:00,46.1,44.2,30.40,NE,34,0.0,0.0,93,0.00,,,0.26,Wunderground v.1.15,2013-12-28 03:15:00,
2013-12-27 21:24:00,46.0,44.1,30.39,NE,34,0.0,0.0,93,0.00,,,0.26,Wunderground v.1.15,2013-12-28 03:24:00,
2013-12-27 21:30:00,45.8,43.9,30.39,NE,34,0.0,0.0,93,0.00,,,0.26,Wunderground v.1.15,2013-12-28 03:30:00,
2013-12-27 21:39:00,45.4,43.5,30.39,NE,34,0.0,0.0,93,0.00,,,0.26,Wunderground v.1.15,2013-12-28 03:39:00,
2013-12-27 21:45:00,45.2,43.3,30.39,NE,34,0.0,0.0,93,0.00,,,0.26,Wunderground v.1.15,2013-12-28 03:45:00,
2013-12-27 21:54:00,44.6,42.7,30.39,NE,34,0.0,0.0,93,0.00,,,0.26,Wunderground v.1.15,2013-12-28 03:54:00,
2013-12-27 22:00:00,44.3,42.4,30.39,NE,34,0.0,0.0,93,0.00,,,0.26,Wunderground v.1.15,2013-12-28 04:00:00,
2013-12-27 22:09:00,44.0,42.4,30.38,NE,34,0.0,0.0,94,0.00,,,0.26,Wunderground v.1.15,2013-12-28 04:09:00,
2013-12-27 22:15:00,43.8,42.2,30.38,NE,34,0.0,0.0,94,0.00,,,0.26,Wunderground v.1.15,2013-12-28 04:15:00,
2013-12-27 22:24:00,43.4,41.8,30.39,NE,34,0.0,0.0,94,0.00,,,0.26,Wunderground v.1.15,2013-12-28 04:24:00,
2013-12-27 22:30:00,43.1,41.5,30.39,NE,34,0.0,0.0,94,0.00,,,0.26,Wunderground v.1.15,2013-12-28 04:30:00,
2013-12-27 22:39:00,42.8,41.2,30.39,NE,34,0.0,0.0,94,0.00,,,0.26,Wunderground v.1.15,2013-12-28 04:39:00,
2013-12-27 22:44:00,42.8,41.2,30.39,NE,34,0.0,0.0,94,0.00,,,0.26,Wunderground v.1.15,2013-12-28 04:44:00,
2013-12-27 22:55:00,42.7,41.4,30.39,NE,34,0.0,0.0,95,0.00,,,0.26,Wunderground v.1.15,2013-12-28 04:55:00,
2013-12-27 23:04:00,42.8,41.5,30.38,NE,34,0.0,0.0,95,0.00,,,0.26,Wunderground v.1.15,2013-12-28 05:04:00,
2013-12-27 23:10:00,42.9,41.6,30.38,NE,34,0.0,0.0,95,0.00,,,0.26,Wunderground v.1.15,2013-12-28 05:10:00,
2013-12-27 23:14:00,43.0,41.7,30.38,NE,34,0.0,0.0,95,0.00,,,0.26,Wunderground v.1.15,2013-12-28 05:14:00,
2013-12-27 23:19:00,42.9,41.6,30.38,NE,34,0.0,0.0,95,0.00,,,0.26,Wunderground v.1.15,2013-12-28 05:19:00,
2013-12-27 23:25:00,42.8,41.5,30.37,NE,34,0.0,0.0,95,0.00,,,0.26,Wunderground v.1.15,2013-12-28 05:25:00,
2013-12-27 23:34:00,42.7,41.4,30.37,NE,34,0.0,0.0,95,0.00,,,0.26,Wunderground v.1.15,2013-12-28 05:34:00,
2013-12-27 23:40:00,42.8,41.5,30.37,NE,34,0.0,0.0,95,0.00,,,0.26,Wunderground v.1.15,2013-12-28 05:40:00,
2013-12-27 23:49:00,42.9,41.6,30.37,NE,34,0.0,0.0,95,0.00,,,0.26,Wunderground v.1.15,2013-12-28 05:49:00,
2013-12-27 23:55:00,42.9,41.6,30.37,NE,34,0.0,0.0,95,0.00,,,0.26,Wunderground v.1.15,2013-12-28 05:55:00,